Temperature
31 31 32 33 34 34 33 33 34 34 35 34 34 34 34 34 33 32 31 30 28 27 26 25 23 22 21 21 21 21 20 20 20 19 19 19 19 19 18 18 18 18 18 18
32 31 33 34 34 33 33 33 33 34 35 34 34 34 34 34 33 32 31 30 28 27 26 24 23 22 21 21 21 20 20 20 20 19 19 19 19 19 19 18 18 18 18 18
31 33 34 34 33 33 33 33 33 34 34 34 34 33 33 33 33 32 31 30 29 27 26 24 23 22 21 21 20 20 20 20 20 19 19 19 19 19 19 19 18 18 18 18
32 33 33 33 32 33 32 34 34 33 33 33 33 32 32 32 32 32 32 30 29 28 26 24 23 22 21 21 20 20 20 20 19 19 19 19 19 19 19 19 18 18 18 18
32 33 33 32 33 33 33 34 33 33 32 32 33 32 32 32 31 32 32 31 29 28 26 24 23 22 22 21 20 20 20 20 19 19 19 19 18 18 18 18 18 18 18 18
32 34 34 33 33 34 34 33 32 32 32 30 32 32 31 32 32 32 31 30 29 28 26 24 23 22 22 21 20 20 20 19 19 19 19 19 18 18 18 18 18 18 18 18
31 32 33 33 33 33 33 31 30 30 30 30 32 32 32 32 33 33 31 30 28 27 26 24 23 22 22 21 20 20 20 19 19 19 19 19 18 18 18 18 18 18 18 18
30 30 32 33 32 32 32 31 30 29 30 29 30 31 32 33 33 32 31 29 28 27 26 24 24 23 22 21 21 20 20 19 19 19 19 19 19 18 18 18 18 18 18 18
31 31 34 33 33 33 32 32 33 31 31 31 30 31 32 32 32 32 31 29 28 27 26 25 24 23 22 21 21 20 19 19 19 19 18 18 18 18 18 18 18 18 18 18
32 31 33 34 33 33 33 33 32 31 29 29 30 30 30 30 31 31 31 29 28 27 26 25 24 23 22 21 20 20 19 19 19 19 18 18 18 18 18 18 18 18 18 18
32 30 32 33 31 31 32 31 31 31 31 30 29 28 31 30 30 31 31 29 28 27 26 25 24 23 22 21 20 20 19 19 19 19 18 18 18 18 18 18 18 18 18 18
31 31 30 32 33 33 32 32 31 30 30 30 30 30 32 32 32 31 30 29 28 27 26 25 24 23 22 21 20 20 19 19 19 18 18 18 18 18 18 18 18 18 18 17
31 30 28 30 31 32 32 32 32 31 30 30 30 29 32 32 31 30 30 28 27 27 26 24 23 23 22 21 20 20 19 19 19 18 18 18 18 18 18 18 18 18 18 17
30 29 29 29 30 31 31 31 32 31 30 30 30 30 30 31 31 30 29 28 27 26 25 24 23 22 22 21 20 20 19 19 19 18 18 18 18 18 18 18 18 17 17 17
30 28 29 30 31 32 32 31 32 31 31 31 31 31 30 30 30 30 29 28 27 26 25 24 23 22 21 20 20 19 19 19 18 18 18 18 18 18 18 17 17 17 17 17
29 28 28 29 30 31 31 32 32 32 32 31 31 31 31 30 30 30 29 28 27 26 24 23 22 21 21 20 20 19 19 18 18 18 18 17 17 17 17 17 17 17 16 16
28 26 27 28 30 30 29 31 32 32 32 32 31 31 31 30 29 29 29 28 27 25 24 23 22 21 20 20 19 19 18 18 18 18 18 17 17 17 17 17 17 16 16 16
26 26 26 27 28 27 30 32 32 32 32 32 31 31 31 30 29 29 28 28 27 25 24 23 22 21 20 19 19 19 18 18 18 17 17 17 17 17 17 17 16 16 16 16
27 25 26 27 27 28 30 31 31 31 29 31 30 30 30 30 29 28 27 27 26 25 24 23 22 21 20 19 18 18 18 18 17 17 17 17 17 17 16 16 16 16 15 15
27 25 25 26 26 26 28 30 31 30 28 29 29 29 29 29 28 26 25 25 25 24 23 22 21 20 20 19 18 18 18 17 17 17 17 17 16 16 16 16 16 15 15 15
25 24 24 25 25 26 27 29 29 27 26 27 27 27 27 26 26 24 24 24 23 23 22 21 21 20 19 18 18 18 17 17 17 17 16 16 16 16 16 15 15 15 15 14
25 25 24 24 24 24 26 27 25 24 25 25 25 25 25 24 24 23 23 23 22 22 21 21 20 19 18 18 17 17 17 17 17 16 16 16 16 15 15 15 15 14 14 14
25 25 25 25 24 23 23 23 23 23 23 23 24 24 23 23 23 22 22 21 21 21 20 20 19 18 18 17 17 17 17 16 16 16 16 15 15 15 14 14 14 14 14 14
25 25 24 24 23 23 23 22 22 22 22 22 22 22 22 22 21 21 21 20 20 19 19 19 18 17 17 17 16 16 16 16 16 16 15 15 14 14 14 14 13 13 13 13
23 23 23 22 22 22 22 21 21 21 21 21 21 21 21 21 20 20 19 19 19 18 18 18 17 17 16 16 16 16 16 16 15 15 15 14 14 13 13 13 13 13 13 13
22 21 21 21 21 21 20 20 20 20 20 20 20 20 20 19 19 19 19 18 18 18 17 17 16 16 16 16 15 15 15 15 15 14 14 13 13 13 13 13 12 12 12 12
Wind_Speed
10 11 12 12 11 9 10 9 6 3 1 4 6 3 4 5 5 7 8 10 11 11 12 13 14 13 13 12 11 11 10 9 8 7 6 5 5 4 3 4 8 9 9 9
12 14 14 12 6 6 9 10 9 5 1 4 8 7 4 5 5 6 8 9 11 11 12 13 13 13 13 13 12 11 10 10 9 7 5 4 4 4 4 3 6 9 9 8
16 10 7 10 9 8 10 10 9 8 6 8 10 10 7 5 5 7 8 10 11 12 14 14 14 13 13 13 13 12 10 10 10 8 6 5 4 3 3 4 5 6 8 9
15 15 8 8 10 11 11 10 9 9 9 10 9 7 4 7 6 8 8 9 11 11 13 14 13 13 13 12 12 10 10 9 9 9 8 8 6 6 6 5 5 6 7 8
14 14 12 12 12 11 11 7 7 10 10 12 12 8 4 8 8 7 7 8 9 10 12 13 12 12 11 12 11 11 10 9 9 9 8 7 6 5 4 4 6 6 6 7
17 13 12 13 13 11 9 8 10 11 11 13 12 9 3 3 5 7 8 8 9 9 11 11 11 11 10 10 10 11 10 10 9 9 8 7 7 6 5 5 5 6 5 5
17 17 12 10 13 12 10 9 8 8 9 8 8 7 3 7 6 6 8 8 9 9 11 11 10 11 10 11 11 11 11 10 9 9 8 7 7 6 6 5 5 5 4 4
17 16 17 14 14 12 13 14 10 8 5 2 4 4 4 9 8 6 8 10 10 10 10 10 10 9 9 10 10 11 11 9 9 8 7 6 6 5 4 5 4 4 4 4
13 16 17 17 15 16 14 14 16 15 16 10 5 4 5 8 8 7 10 11 10 10 11 11 10 9 9 9 9 10 10 9 8 8 6 4 5 4 4 3 4 3 2 3
17 12 11 15 12 15 17 13 9 11 9 11 7 4 2 6 6 8 9 11 11 11 10 11 10 10 9 9 8 8 9 8 7 6 5 5 5 4 3 3 3 3 2 2
20 15 13 12 14 15 15 15 11 9 9 10 7 1 3 8 6 8 9 10 11 11 11 10 9 10 10 10 10 9 8 7 7 6 5 4 4 4 4 3 3 3 2 2
17 13 14 14 14 15 15 16 14 10 9 9 9 2 7 7 7 7 8 9 10 10 10 11 10 10 10 10 10 9 8 8 7 6 5 4 3 3 3 3 2 2 2 1
11 11 13 14 14 15 14 15 15 14 11 11 9 2 6 3 4 6 9 10 9 10 11 11 10 9 9 9 9 9 8 8 7 7 6 4 3 3 2 2 2 2 1 1
6 11 14 16 11 12 15 16 15 15 13 12 11 6 6 5 5 7 8 10 10 10 10 10 9 8 8 8 8 8 8 7 7 6 5 4 3 3 2 2 2 2 2 2
7 13 16 18 16 14 13 16 17 16 15 13 9 7 4 4 6 6 8 9 11 11 11 10 9 8 7 7 7 7 7 7 6 6 5 4 4 3 3 3 3 2 2 2
9 10 13 17 19 17 14 13 15 17 15 15 12 7 3 3 5 6 8 9 10 10 10 10 10 9 8 7 7 7 7 7 6 6 5 5 4 3 3 3 3 3 3 3
10 8 11 14 16 17 17 14 12 11 12 12 11 5 4 3 4 4 5 7 9 10 10 10 10 9 8 7 7 8 7 7 7 6 6 6 5 4 4 4 4 4 4 3
5 6 8 12 13 17 14 13 13 11 9 8 5 3 2 4 5 3 3 5 7 9 10 10 10 10 9 8 8 8 8 7 7 6 6 5 5 5 4 4 5 4 4 3
7 6 8 11 14 15 11 8 10 9 5 3 1 0 1 2 4 3 3 4 5 7 9 10 11 11 10 10 9 8 8 8 7 6 6 5 5 5 5 5 4 4 4 3
12 8 9 11 13 11 7 7 6 6 5 2 3 3 3 2 1 3 5 5 6 6 9 10 11 11 10 10 10 9 8 7 6 5 5 5 5 5 5 5 5 4 4 3
15 12 13 15 14 8 5 7 6 7 1 5 5 6 5 5 5 4 5 5 6 7 9 9 10 10 10 9 8 7 7 6 6 6 6 5 5 4 5 4 4 4 4 3
14 14 14 14 15 8 8 4 2 4 6 7 7 7 7 7 7 6 5 6 7 7 8 9 9 9 8 8 8 7 6 6 6 6 6 5 4 4 4 4 3 3 3 3
8 6 6 6 4 4 6 7 7 6 6 6 6 7 6 6 6 6 6 5 7 7 7 7 9 9 8 7 7 7 6 6 6 6 5 5 4 3 4 3 3 2 2 2
5 2 3 2 4 5 6 7 7 7 7 6 6 5 5 5 6 5 5 5 6 6 7 7 8 8 7 6 6 6 6 6 6 6 5 4 4 4 3 2 2 1 1 1
4 3 4 4 1 3 5 6 7 7 6 6 5 5 6 5 5 5 5 6 6 6 6 7 6 6 7 7 6 6 7 6 6 5 5 4 4 4 4 4 4 3 4 3
4 4 4 2 3 3 3 6 6 6 5 5 4 5 5 4 4 4 4 5 5 6 6 7 7 6 6 7 6 6 6 5 6 5 4 3 3 4 4 4 5 10 8 8
Wind_Direction
222 237 242 242 239 269 299 304 299 299 29 303 292 261 188 169 175 161 162 160 164 165 162 156 158 162 163 162 166 171 177 171 171 177 182 190 183 179 184 171 167 179 190 184
232 233 246 264 281 278 276 279 280 279 222 284 286 279 220 186 190 171 170 167 167 167 160 156 160 167 170 171 173 176 180 175 179 181 179 183 181 186 192 182 176 186 188 183
235 242 235 250 257 260 262 267 281 296 299 270 268 259 213 192 188 172 176 170 169 171 165 162 168 173 177 178 180 183 182 177 183 177 180 185 177 191 187 183 186 192 186 192
240 247 247 252 251 251 256 262 276 287 284 285 274 278 177 166 187 186 180 169 164 164 163 165 172 176 181 181 181 178 176 177 182 181 186 187 189 193 195 189 187 190 192 198
237 236 236 242 247 251 260 297 295 281 275 277 274 273 206 176 179 180 163 152 150 155 160 165 172 175 177 178 178 175 173 180 184 188 187 192 199 201 196 194 184 188 189 197
249 244 235 240 242 247 259 269 269 264 265 259 256 258 231 147 151 158 147 143 141 151 149 152 164 164 170 175 174 171 172 178 181 187 187 193 199 197 202 202 188 193 189 192
238 242 233 236 244 228 231 245 252 243 240 257 263 245 173 122 121 131 138 137 136 142 144 151 159 164 170 172 172 170 170 176 180 187 190 194 200 199 208 214 204 199 194 196
220 230 222 219 232 235 217 233 247 267 269 283 257 245 144 120 115 122 133 134 139 146 148 150 157 161 166 169 169 167 167 172 177 183 191 196 198 203 212 215 215 210 206 199
231 227 215 207 215 237 234 229 249 266 278 273 227 210 147 128 139 143 137 140 148 147 143 145 151 154 160 164 163 161 162 165 171 176 176 189 195 204 216 213 215 223 224 214
254 265 228 194 205 225 245 248 247 256 278 284 267 241 175 150 156 144 146 150 147 144 145 144 144 149 150 152 150 149 152 156 160 163 171 179 181 187 198 206 211 213 216 216
238 252 250 203 204 224 223 242 258 271 266 271 280 7 111 157 182 165 155 148 145 154 150 145 143 140 139 141 143 142 146 151 155 158 166 175 176 183 185 191 202 208 211 206
220 237 251 235 209 223 236 228 233 244 262 272 277 241 160 162 173 154 141 137 145 146 145 143 144 141 142 145 144 146 154 158 160 161 166 170 167 170 176 183 189 192 189 195
213 231 240 244 220 207 230 232 229 235 248 261 265 185 122 123 131 129 133 136 148 149 143 144 148 146 145 143 145 149 157 154 154 156 157 153 157 156 162 164 140 124 122 126
239 230 239 239 230 214 216 230 233 233 236 242 254 220 175 186 159 139 139 146 152 148 146 148 142 137 137 139 141 149 153 149 149 144 143 143 151 151 144 135 130 139 144 135
238 232 241 258 264 258 234 223 226 231 243 253 260 250 206 180 147 148 155 152 147 150 151 149 145 142 139 139 142 146 141 136 135 138 143 145 147 140 142 139 136 137 135 126
224 253 249 248 256 258 254 238 226 225 232 245 255 257 193 150 136 147 149 156 156 157 159 157 155 151 150 151 152 146 140 138 137 140 136 133 132 132 130 126 123 110 99 92
208 223 251 252 244 249 250 247 243 238 235 239 246 239 200 164 125 144 154 165 162 161 164 164 160 156 153 152 147 145 142 138 138 132 128 129 127 122 117 121 112 104 94 83
242 233 245 254 255 245 244 246 245 239 246 242 229 216 202 146 132 131 144 154 156 161 162 160 156 151 149 145 140 138 139 137 135 132 132 129 125 124 121 113 104 98 92 87
232 242 248 247 246 246 245 239 240 232 237 280 266 256 336 146 135 101 85 114 136 151 146 147 151 150 147 144 143 142 141 140 143 140 133 130 131 130 122 113 107 105 105 101
220 215 240 250 252 246 261 281 279 245 213 18 27 30 19 38 204 70 63 92 106 112 129 139 142 141 140 139 142 146 147 146 146 138 129 126 128 126 123 122 119 121 123 119
208 208 227 246 254 251 310 320 283 239 194 32 40 39 40 52 53 63 73 91 103 109 122 129 133 135 134 134 139 146 143 143 138 131 128 125 123 122 126 126 130 135 132 127
207 211 219 236 246 249 352 346 10 38 42 44 45 47 56 68 68 65 68 95 104 111 119 127 126 124 127 134 139 139 131 126 125 127 128 129 131 136 129 126 133 139 146 146
224 227 234 232 227 92 51 61 54 42 44 36 32 42 59 68 68 71 69 93 108 112 116 118 125 123 123 129 134 136 127 126 126 124 121 120 121 110 116 129 134 144 167 167
228 236 246 251 118 93 71 63 48 41 41 32 31 32 56 71 72 76 79 81 95 112 118 118 122 130 128 127 126 126 125 123 126 129 128 124 119 116 105 93 92 101 75 97
328 304 243 220 139 76 59 38 31 30 30 26 23 35 55 73 79 78 83 85 87 97 106 116 120 123 126 120 113 113 119 128 133 136 134 135 133 123 101 74 43 54 57 47
303 316 290 288 24 16 26 19 23 22 17 14 24 41 54 66 81 85 94 95 94 99 105 110 113 114 116 115 114 115 120 131 136 138 139 139 134 128 123 111 78 49 58 63
Height
1501 1501 1498 1490 1485 1486 1487 1488 1488 1482 1478 1484 1485 1485 1484 1486 1490 1495 1500 1504 1509 1513 1518 1521 1524 1527 1530 1532 1535 1537 1540 1542 1544 1547 1549 1552 1555 1557 1560 1561 1563 1565 1566 1568
1498 1498 1489 1483 1483 1487 1490 1492 1489 1482 1478 1485 1486 1485 1482 1485 1488 1493 1497 1502 1507 1512 1516 1519 1523 1526 1528 1530 1533 1535 1538 1540 1542 1545 1548 1550 1553 1555 1558 1560 1561 1563 1564 1566
1497 1488 1484 1485 1488 1492 1492 1492 1489 1487 1482 1481 1486 1489 1484 1483 1486 1491 1495 1499 1504 1508 1513 1517 1521 1524 1526 1528 1531 1533 1535 1538 1540 1543 1546 1549 1551 1553 1555 1557 1559 1561 1562 1564
1489 1484 1486 1488 1491 1491 1495 1484 1484 1487 1493 1493 1487 1501 1487 1483 1487 1489 1492 1496 1501 1506 1511 1515 1519 1522 1525 1527 1529 1532 1534 1536 1538 1541 1544 1546 1548 1550 1552 1554 1556 1558 1560 1561
1487 1483 1486 1491 1489 1486 1488 1482 1485 1488 1493 1497 1489 1497 1491 1482 1488 1488 1490 1494 1499 1504 1509 1513 1517 1520 1523 1525 1528 1530 1532 1534 1536 1539 1542 1544 1547 1549 1551 1553 1554 1555 1557 1558
1482 1479 1480 1483 1483 1483 1484 1487 1490 1490 1493 1508 1494 1497 1496 1484 1485 1485 1490 1494 1499 1503 1508 1512 1516 1519 1521 1524 1526 1528 1530 1532 1534 1537 1540 1542 1545 1547 1549 1550 1552 1553 1554 1556
1487 1480 1478 1481 1485 1483 1487 1500 1512 1514 1514 1509 1486 1491 1490 1479 1479 1483 1488 1494 1499 1503 1507 1511 1514 1517 1519 1522 1524 1526 1528 1530 1533 1535 1538 1540 1542 1544 1546 1548 1550 1551 1552 1553
1492 1491 1478 1478 1484 1485 1487 1494 1513 1520 1515 1511 1497 1496 1484 1474 1479 1483 1488 1493 1498 1503 1507 1510 1513 1515 1518 1520 1523 1525 1527 1529 1531 1534 1536 1538 1540 1542 1544 1546 1548 1549 1550 1551
1480 1483 1467 1471 1476 1480 1486 1488 1484 1494 1495 1502 1498 1489 1481 1476 1479 1483 1487 1493 1498 1502 1506 1509 1512 1515 1517 1519 1521 1524 1526 1528 1530 1532 1534 1537 1538 1540 1542 1544 1545 1547 1548 1549
1472 1480 1465 1466 1473 1476 1478 1478 1485 1495 1509 1514 1500 1496 1493 1488 1483 1484 1487 1492 1497 1502 1506 1509 1512 1514 1517 1519 1521 1523 1525 1526 1529 1531 1533 1535 1537 1538 1540 1542 1543 1544 1545 1546
1470 1480 1474 1468 1477 1481 1482 1485 1486 1487 1489 1506 1513 1510 1482 1485 1484 1483 1486 1491 1496 1500 1504 1508 1512 1514 1517 1519 1521 1522 1524 1526 1528 1530 1532 1534 1536 1537 1538 1540 1541 1542 1543 1544
1468 1475 1481 1471 1465 1469 1472 1478 1484 1499 1499 1493 1501 1501 1476 1478 1479 1481 1485 1490 1495 1501 1504 1509 1512 1515 1517 1519 1521 1523 1524 1526 1528 1530 1531 1533 1534 1535 1536 1538 1539 1540 1541 1541
1467 1476 1491 1486 1476 1471 1473 1472 1475 1480 1488 1494 1499 1500 1476 1479 1480 1483 1486 1491 1495 1500 1504 1509 1512 1515 1517 1519 1521 1523 1525 1526 1528 1529 1530 1532 1533 1534 1535 1536 1537 1538 1539 1539
1468 1475 1483 1488 1479 1470 1475 1473 1471 1478 1488 1492 1489 1489 1481 1479 1480 1483 1488 1491 1495 1500 1504 1508 1512 1514 1517 1519 1521 1522 1524 1525 1527 1528 1529 1530 1532 1533 1534 1534 1535 1536 1537 1537
1470 1477 1476 1472 1465 1464 1465 1468 1470 1474 1477 1484 1482 1481 1480 1478 1481 1484 1487 1490 1495 1500 1504 1508 1511 1514 1516 1518 1520 1522 1523 1525 1526 1527 1529 1530 1531 1531 1532 1533 1534 1535 1535 1536
1472 1477 1476 1476 1467 1463 1465 1462 1463 1467 1470 1473 1476 1478 1473 1477 1479 1483 1486 1490 1494 1498 1503 1507 1510 1512 1515 1517 1519 1521 1522 1524 1525 1527 1528 1529 1530 1531 1531 1532 1533 1534 1534 1535
1472 1481 1484 1481 1469 1468 1475 1464 1463 1464 1463 1468 1475 1474 1473 1476 1479 1483 1486 1489 1493 1497 1501 1505 1508 1511 1514 1516 1518 1520 1522 1524 1525 1527 1528 1529 1530 1530 1531 1532 1532 1533 1533 1534
1477 1481 1482 1481 1479 1490 1469 1454 1455 1461 1463 1463 1466 1469 1471 1476 1480 1483 1486 1488 1492 1495 1499 1503 1506 1510 1513 1515 1517 1519 1521 1523 1525 1526 1528 1529 1530 1530 1531 1531 1532 1532 1533 1533
1475 1481 1484 1483 1485 1479 1463 1456 1457 1463 1469 1465 1467 1470 1473 1476 1479 1484 1487 1488 1491 1494 1497 1501 1505 1508 1512 1515 1517 1519 1521 1523 1525 1526 1527 1528 1529 1530 1530 1531 1531 1532 1532 1532
1474 1479 1486 1483 1489 1489 1473 1459 1458 1462 1474 1471 1471 1473 1475 1477 1481 1488 1488 1490 1492 1494 1497 1501 1504 1507 1511 1514 1516 1519 1520 1522 1524 1525 1526 1528 1529 1529 1529 1530 1530 1531 1531 1532
1477 1482 1487 1487 1486 1478 1468 1464 1464 1478 1484 1477 1476 1478 1479 1482 1486 1490 1490 1491 1494 1496 1498 1501 1504 1507 1510 1513 1516 1518 1520 1522 1523 1524 1526 1527 1528 1529 1529 1530 1530 1530 1531 1531
1472 1478 1483 1484 1488 1488 1473 1470 1476 1483 1480 1480 1481 1482 1484 1486 1488 1490 1492 1492 1494 1497 1500 1502 1504 1507 1509 1512 1515 1517 1519 1520 1522 1523 1525 1526 1527 1528 1529 1529 1529 1530 1530 1530
1466 1470 1472 1477 1481 1480 1479 1481 1483 1483 1484 1484 1485 1486 1487 1488 1490 1491 1493 1494 1496 1499 1501 1503 1505 1507 1509 1511 1514 1516 1518 1519 1521 1522 1524 1525 1526 1527 1527 1528 1528 1529 1529 1530
1467 1468 1472 1476 1478 1480 1482 1483 1485 1485 1487 1487 1488 1488 1489 1490 1492 1493 1495 1496 1498 1500 1501 1503 1505 1507 1509 1511 1513 1515 1517 1518 1520 1521 1523 1524 1525 1525 1526 1527 1527 1528 1528 1528
1472 1473 1473 1478 1481 1482 1485 1486 1488 1488 1489 1489 1489 1490 1490 1491 1493 1495 1496 1497 1499 1500 1501 1503 1505 1507 1508 1510 1512 1513 1515 1517 1519 1520 1522 1523 1524 1525 1525 1525 1526 1526 1527 1527
1477 1479 1480 1482 1485 1486 1488 1489 1489 1490 1491 1491 1491 1491 1492 1493 1494 1495 1497 1498 1499 1500 1501 1503 1504 1506 1507 1508 1511 1512 1514 1516 1517 1519 1520 1521 1523 1523 1523 1524 1524 1525 1525 1526